Total_Precipitation_Accumulation
1.84 1.91 1.99 2.06 2.21 2.29 2.28 2.34 2.39 2.46 2.60 2.70 2.82 2.89 2.87 2.87 3.01 3.09 2.89 3.04 3.00 3.10 3.00 2.94 2.90 3.12 3.18 3.01 3.19 3.36 3.63 3.89 3.59 3.06 3.14 3.15 3.10 2.92 2.89 2.76 2.61 2.54 2.33
1.88 2.00 2.14 2.21 2.33 2.40 2.31 2.41 2.62 2.68 2.76 2.85 2.94 3.01 2.85 2.92 3.07 2.98 2.93 3.00 3.03 2.97 3.07 3.27 3.15 3.34 3.38 3.30 3.48 3.50 3.62 3.93 3.83 3.46 3.28 3.30 3.19 3.06 2.99 2.74 2.36 2.22 2.21
2.23 2.30 2.34 2.29 2.36 2.51 2.57 2.61 2.75 2.88 2.91 2.84 2.79 2.81 2.95 3.16 3.17 2.97 2.95 2.93 2.82 2.70 2.85 3.13 3.40 3.88 3.73 3.56 3.45 3.35 3.40 3.50 3.78 3.49 3.18 3.35 3.17 3.04 3.03 2.67 2.39 2.34 1.97
2.08 2.17 2.34 2.42 2.53 2.73 2.88 2.96 2.92 2.87 2.82 2.85 2.92 2.91 2.97 3.01 3.01 3.03 3.08 3.01 2.91 2.73 2.72 2.83 2.99 3.31 3.48 3.63 3.40 3.30 3.42 3.52 3.64 3.53 3.40 3.57 3.62 3.46 3.25 2.86 2.67 2.53 2.23
2.30 2.51 2.72 2.82 2.89 3.04 3.07 3.04 3.05 2.97 2.86 3.06 3.12 3.10 3.06 2.98 2.76 3.00 3.18 3.03 3.08 2.94 2.81 2.73 2.55 2.69 2.91 3.11 2.92 3.25 3.49 3.44 3.48 3.52 3.61 3.94 3.91 3.74 3.22 2.94 2.82 2.71 2.40
2.62 2.98 3.14 3.23 3.28 3.32 3.37 3.33 3.33 3.26 3.38 3.42 3.25 3.18 3.10 2.80 3.00 3.09 3.09 3.07 3.18 3.11 3.01 2.95 2.71 2.51 2.50 2.65 2.72 2.92 3.19 3.23 3.29 3.45 3.50 3.66 3.69 3.66 3.47 3.20 2.94 2.76 2.46
2.68 2.91 3.03 3.13 3.21 3.36 3.37 3.39 3.41 3.45 3.44 3.43 3.47 3.40 3.24 3.34 3.39 3.07 3.02 2.98 3.03 3.02 3.23 3.35 2.84 2.37 2.63 2.57 2.67 2.65 2.51 2.64 2.85 3.08 3.21 3.21 3.56 3.71 3.80 3.35 3.15 2.93 2.55
2.91 3.05 3.13 3.10 3.15 3.22 3.21 3.10 3.14 3.30 3.31 3.25 3.21 3.16 3.09 3.07 3.22 2.98 2.93 2.76 2.73 2.75 2.82 2.89 2.88 2.65 2.57 2.65 2.60 2.41 2.16 2.14 2.31 2.36 2.43 2.70 3.08 3.60 3.95 3.69 3.57 3.35 2.97
2.93 3.02 3.14 3.23 3.33 3.25 3.17 3.18 3.20 3.27 3.19 3.13 3.10 3.14 2.99 2.96 3.09 2.88 2.86 2.60 2.53 2.45 2.43 2.41 2.42 2.27 2.37 2.47 2.41 2.27 2.13 2.02 2.04 2.12 2.06 2.18 2.51 2.91 3.44 3.70 3.46 3.14 2.80
2.86 3.00 3.12 3.23 3.40 3.51 3.47 3.52 3.47 3.38 3.30 3.30 3.25 3.24 3.12 3.03 3.19 2.95 2.82 2.56 2.48 2.45 2.53 2.48 2.42 2.25 2.27 2.22 2.12 2.13 1.94 1.83 1.97 1.94 1.83 1.84 1.98 2.34 2.88 3.06 3.18 3.07 2.74
2.58 2.64 2.82 3.07 3.31 3.48 3.59 3.60 3.62 3.54 3.42 3.21 3.06 3.02 2.94 2.93 3.12 2.94 2.79 2.49 2.42 2.50 2.56 2.60 2.53 2.46 2.18 2.06 1.94 1.83 1.81 1.98 2.08 2.07 1.99 1.98 2.14 2.35 2.53 2.80 3.05 3.12 2.90
2.57 2.70 2.85 3.09 3.18 3.24 3.40 3.44 3.59 3.57 3.46 3.35 3.12 2.92 2.81 2.66 2.63 2.64 2.48 2.34 2.38 2.42 2.47 2.58 2.62 2.56 2.28 2.16 1.99 1.82 1.92 1.92 1.90 2.02 2.01 1.95 1.98 2.10 2.31 2.63 2.93 3.01 2.90
2.82 2.93 3.04 3.14 3.24 3.35 3.43 3.43 3.44 3.44 3.30 3.18 3.00 2.87 2.76 2.67 2.59 2.41 2.15 2.10 2.17 2.15 2.25 2.62 2.70 2.54 2.31 2.04 1.98 1.99 1.93 1.79 1.81 1.83 1.73 1.68 1.76 1.91 2.13 2.44 2.79 3.03 2.96
2.89 2.83 2.87 2.90 2.97 3.07 3.20 3.25 3.24 3.16 3.09 2.98 2.84 2.76 2.64 2.58 2.48 2.40 2.24 2.09 2.09 2.05 2.05 2.28 2.36 2.29 2.06 1.91 1.85 1.77 1.69 1.71 1.71 1.67 1.66 1.75 1.87 1.94 2.00 2.15 2.55 2.91 3.03
2.92 2.94 2.98 3.00 3.08 3.16 3.25 3.36 3.28 3.08 3.00 2.86 2.67 2.68 2.67 2.49 2.44 2.49 2.31 2.12 2.08 2.17 2.19 2.14 2.17 2.24 2.20 2.10 2.07 2.02 1.99 1.92 1.80 1.72 1.81 1.85 1.98 2.12 2.19 2.31 2.56 2.78 2.75
2.95 2.89 2.94 3.03 3.11 3.21 3.28 3.30 3.35 3.04 2.93 2.76 2.67 2.61 2.51 2.36 2.28 2.13 2.06 2.02 1.97 2.00 1.92 1.90 2.05 2.22 2.33 2.31 2.34 2.31 2.24 2.15 2.06 2.05 2.09 2.07 2.07 2.17 2.27 2.29 2.47 2.65 2.65
2.98 2.98 2.97 2.92 2.96 3.02 2.99 2.90 2.93 2.86 2.68 2.61 2.52 2.41 2.28 2.16 2.03 1.95 1.91 1.92 1.86 1.80 1.66 1.77 1.95 2.09 2.26 2.41 2.44 2.37 2.28 2.30 2.37 2.34 2.32 2.29 2.29 2.34 2.44 2.43 2.42 2.54 2.62
2.92 2.99 3.03 2.97 2.87 2.85 2.77 2.70 2.63 2.61 2.48 2.33 2.27 2.23 2.22 2.16 2.11 2.07 2.06 2.02 1.88 1.81 1.72 1.91 2.10 2.23 2.34 2.53 2.58 2.53 2.48 2.44 2.47 2.44 2.46 2.44 2.42 2.43 2.47 2.48 2.44 2.43 2.52
2.63 2.59 2.57 2.58 2.54 2.53 2.45 2.36 2.27 2.21 2.26 2.31 2.19 2.10 2.18 2.12 2.17 2.25 2.11 1.93 1.93 1.97 1.99 2.07 2.14 2.24 2.36 2.52 2.66 2.71 2.73 2.67 2.63 2.59 2.55 2.56 2.59 2.59 2.50 2.47 2.54 2.59 2.56
2.13 2.28 2.19 2.08 2.10 2.13 2.13 2.14 2.09 2.09 2.17 2.30 2.25 2.05 2.02 1.96 2.00 2.13 1.97 1.96 2.05 2.04 2.00 2.09 2.13 2.15 2.30 2.42 2.50 2.56 2.59 2.56 2.58 2.64 2.60 2.59 2.60 2.62 2.55 2.58 2.69 2.68 2.57
1.74 1.78 1.84 1.68 1.73 1.88 1.97 2.00 2.03 2.11 2.17 2.17 2.07 1.92 1.86 1.74 1.96 2.08 1.99 1.94 1.93 1.93 1.93 1.95 2.00 2.04 2.14 2.28 2.34 2.41 2.47 2.47 2.46 2.52 2.62 2.62 2.54 2.57 2.57 2.62 2.67 2.74 2.66
1.37 1.37 1.41 1.41 1.52 1.65 1.72 1.79 1.88 1.95 1.99 2.00 1.89 1.74 1.74 1.66 1.85 1.94 1.89 1.87 1.83 1.84 1.87 1.92 1.93 1.92 1.99 2.13 2.19 2.27 2.39 2.37 2.31 2.34 2.48 2.63 2.56 2.51 2.61 2.72 2.75 2.79 2.75
1.26 1.33 1.38 1.40 1.50 1.56 1.54 1.58 1.75 1.85 1.88 1.87 1.80 1.72 1.67 1.66 1.73 1.81 1.84 1.79 1.76 1.74 1.72 1.78 1.85 1.86 1.92 2.04 2.08 2.15 2.30 2.28 2.25 2.30 2.41 2.49 2.47 2.45 2.52 2.58 2.66 2.77 2.74
1.24 1.29 1.33 1.31 1.32 1.37 1.43 1.48 1.54 1.59 1.63 1.66 1.66 1.61 1.58 1.60 1.64 1.64 1.63 1.61 1.66 1.70 1.72 1.81 1.84 1.91 2.01 2.05 1.98 1.94 2.01 2.07 2.06 2.09 2.19 2.34 2.40 2.44 2.48 2.50 2.52 2.56 2.63
1.20 1.27 1.31 1.41 1.46 1.49 1.49 1.50 1.51 1.46 1.46 1.50 1.53 1.58 1.62 1.64 1.65 1.66 1.66 1.66 1.65 1.68 1.67 1.70 1.77 1.83 1.87 1.81 1.76 1.77 1.90 1.85 1.79 1.82 1.96 2.18 2.28 2.37 2.44 2.43 2.45 2.50 2.60
1.32 1.40 1.49 1.57 1.63 1.66 1.71 1.69 1.63 1.58 1.57 1.53 1.58 1.64 1.74 1.82 1.85 1.86 1.82 1.78 1.77 1.78 1.75 1.75 1.73 1.66 1.66 1.62 1.56 1.64 1.64 1.51 1.51 1.65 1.73 1.89 2.09 2.16 2.28 2.40 2.43 2.51 2.54